CAPE
0 0 3 15 39 31 31 13 30 19 9 7 17 22 30 27 21 54 50 42 7 3
0 0 0 0 0 0 1 2 26 29 12 19 10 9 21 27 24 11 22 19 1 3
0 0 0 0 0 0 0 0 0 0 0 10 11 42 57 45 27 21 8 1 0 0
0 0 0 0 0 0 0 0 0 0 0 0 0 2 6 5 5 3 4 1 0 0
0 0 0 0 0 0 0 0 0 0 0 0 0 0 1 0 3 2 1 0 0 0
0 0 0 0 0 0 0 0 0 0 0 0 0 0 2 3 3 3 0 0 0 0
0 0 0 0 0 0 0 0 0 0 0 0 0 0 0 0 0 0 0 0 0 0
0 0 0 0 0 0 0 0 0 0 0 0 0 0 0 0 0 0 0 0 0 0
0 0 0 0 0 0 0 0 0 0 0 0 0 0 0 0 0 0 0 0 0 0
0 0 0 0 0 0 0 0 0 0 0 0 0 0 0 0 0 0 0 0 0 0
0 0 0 0 0 0 0 0 0 0 0 0 0 0 0 0 0 0 0 0 0 0
0 0 0 0 0 0 0 0 0 0 0 0 0 0 0 1 0 0 0 0 0 0
0 0 0 0 0 0 0 0 0 0 0 0 0 0 0 2 1 1 0 0 0 0
0 0 0 0 0 0 0 0 0 0 0 0 0 0 0 1 3 2 1 0 0 0
CIN
0 -23 -72 -9 0 -3 -3 -11 -33 -41 -24 -40 -57 -49 -36 -60 -24 -2 -14 -56 -87 -73
0 0 0 0 0 0 0 -14 -21 -33 -33 -44 -61 -48 -33 -61 -57 -29 -27 -67 -57 -71
0 0 0 0 0 0 0 0 0 0 0 -34 -54 -33 -24 -41 -53 -48 -57 -83 0 0
0 0 0 0 0 0 0 0 0 0 0 0 0 0 -14 -17 -77 -10 -58 -42 0 0
0 0 0 0 0 0 0 0 0 0 0 0 0 0 -1 -2 -2 -3 -5 -1 0 0
0 0 0 0 0 0 0 0 0 0 0 0 0 0 0 -2 -4 -7 -6 -1 0 0
0 0 0 0 0 0 0 0 0 0 0 0 0 0 0 0 0 0 0 0 0 0
0 0 0 0 0 0 0 0 0 0 0 0 0 0 0 0 0 0 0 0 0 0
0 0 0 0 0 0 0 0 0 0 0 0 0 0 0 0 0 0 0 0 0 0
0 0 0 0 0 0 0 0 0 0 0 0 0 0 0 0 0 0 0 0 0 0
0 0 0 0 0 0 0 0 0 0 0 0 0 0 0 0 0 0 0 0 0 0
0 0 0 0 0 0 0 0 0 0 0 0 0 0 0 0 0 0 0 0 0 0
0 0 0 0 0 0 0 0 0 0 0 0 0 0 0 0 0 0 0 0 0 0
0 0 0 0 0 0 0 0 0 0 0 0 0 0 0 -1 0 0 0 0 0 0
Wind_Speed
14 15 17 17 22 23 26 25 23 27 28 28 30 33 32 32 33 33 31 28 27 30
14 13 14 16 18 20 18 21 19 22 22 23 23 24 23 26 26 26 27 25 23 24
14 13 14 15 18 19 20 21 23 24 24 24 24 25 24 25 25 24 27 29 27 24
17 18 17 17 18 20 21 23 24 25 26 27 29 29 29 29 28 27 28 27 24 28
22 22 22 22 22 22 23 25 26 26 27 27 28 28 28 29 26 27 28 29 26 28
24 24 25 25 25 25 26 26 27 27 28 28 28 29 28 29 31 29 27 25 24 27
26 27 27 28 28 28 29 30 30 31 31 31 32 32 32 31 30 31 30 29 26 25
28 29 29 30 30 31 31 32 32 33 33 33 33 33 34 34 33 33 34 33 30 29
31 31 31 31 31 32 33 32 33 33 33 34 34 35 35 35 35 33 33 34 32 30
34 35 36 36 35 35 35 34 34 34 35 35 35 35 36 36 36 35 34 33 33 31
33 33 35 36 37 37 37 38 38 37 37 37 36 37 38 38 37 37 35 34 34 34
34 37 38 39 40 38 38 38 38 38 39 40 41 40 40 38 38 38 38 37 35 34
36 39 41 42 43 40 40 42 40 41 39 40 41 40 39 39 38 39 39 39 37 36
39 42 43 44 44 45 46 45 45 45 42 41 39 39 39 39 38 38 39 39 38 37
Wind_Direction
313 285 279 284 276 273 267 270 278 279 279 274 272 274 276 278 279 280 281 285 289 289
324 315 318 303 305 297 300 287 287 291 292 285 280 279 281 281 281 283 282 285 287 295
324 325 322 309 300 298 299 293 286 287 292 286 285 281 284 286 288 288 283 280 283 286
329 331 329 316 308 304 298 292 289 290 290 287 280 280 283 284 286 286 283 282 282 280
357 351 344 334 332 329 318 312 306 304 300 298 296 294 292 289 290 288 286 281 282 280
332 332 333 334 331 327 320 313 310 307 304 301 299 297 295 291 287 287 288 287 283 280
329 327 325 323 319 316 314 312 308 305 301 299 296 294 292 291 291 289 287 285 285 281
334 331 329 325 323 321 319 315 312 308 305 302 299 296 293 291 288 286 283 283 281 279
334 332 331 329 326 322 320 318 316 313 310 306 303 301 297 293 290 288 286 284 283 280
327 325 323 323 322 320 318 317 315 313 310 307 305 302 298 296 291 288 286 284 282 280
328 327 325 322 319 318 316 314 311 309 308 305 303 302 299 295 292 288 286 284 282 279
325 321 320 317 315 314 313 311 309 307 304 302 299 298 296 296 292 288 285 282 281 279
322 320 316 314 313 312 311 308 306 304 303 301 300 298 297 295 293 289 285 282 280 278
320 317 314 313 312 309 307 306 304 302 301 301 302 301 298 295 293 290 287 284 280 278